GFSSE_850_rhum_126.txt.gz
RH
71 58 54 67 66 56 59 63 63 63 63 66 66 73 70 67 61 72 70 32 15 17 20 30 82 74 54 46 75 88 86 85 82 85 77 70 67 46 20 16 19 27 30
55 63 56 63 75 63 62 64 64 64 63 64 70 73 72 69 66 79 73 27 15 42 84 84 39 47 78 75 78 86 80 81 81 78 70 53 27 18 17 18 24 41 45
64 77 68 61 76 69 66 66 66 64 66 66 79 74 73 70 73 83 72 27 30 74 84 92 41 67 85 88 67 80 85 75 68 57 37 21 16 16 19 29 48 78 86
75 76 78 74 77 71 69 68 69 67 67 69 75 75 75 72 84 86 70 35 50 81 86 87 69 80 85 87 75 83 72 75 83 83 32 22 21 29 44 49 72 87 72
77 76 86 84 82 75 71 70 72 71 67 71 74 75 77 75 84 82 69 41 64 74 83 79 70 77 64 71 78 78 67 83 84 83 44 31 29 59 74 75 80 56 54
72 82 76 84 83 77 74 70 73 75 70 70 74 73 77 80 84 83 62 60 69 75 76 68 67 65 67 68 67 52 52 73 74 51 39 35 39 35 47 64 63 65 65
76 88 89 80 83 79 76 75 73 75 76 73 72 73 76 82 86 86 72 72 78 81 67 68 60 46 37 33 36 39 72 82 83 61 39 35 50 58 57 57 57 49 53
70 74 96 84 82 80 79 78 73 75 78 76 73 73 76 84 87 85 72 70 76 80 64 67 66 38 24 21 24 50 80 85 80 53 36 41 72 67 52 51 40 59 55
56 69 74 97 80 79 80 80 77 77 77 75 78 75 77 84 86 86 71 66 73 81 67 64 69 33 20 20 27 61 82 82 63 42 33 33 56 45 37 37 35 36 35
52 65 83 89 94 81 79 80 80 79 78 78 78 78 81 85 83 87 74 63 74 83 72 66 56 24 20 24 38 62 77 79 79 45 32 30 32 31 31 32 32 33 33
48 55 96 96 100 90 79 82 80 81 81 80 78 76 80 83 86 93 74 63 77 82 74 70 43 21 24 29 45 60 73 83 72 46 32 31 31 31 31 32 33 34 35
45 51 58 99 99 100 82 87 80 82 77 73 72 75 80 87 89 96 75 62 78 77 79 62 28 23 27 30 49 68 76 81 64 38 33 33 33 33 34 34 36 38 40
44 48 49 77 91 96 94 81 75 70 72 73 69 82 88 90 97 91 87 72 70 78 80 44 24 25 29 32 56 65 75 78 63 40 36 36 36 36 37 38 40 42 45
47 56 40 42 58 92 96 100 64 70 76 80 74 87 93 97 100 89 75 66 80 80 71 35 25 28 32 41 60 70 72 78 63 42 38 37 38 39 40 41 43 47 50
61 60 50 46 40 87 98 99 84 76 74 74 84 92 97 100 94 94 64 68 83 78 58 30 37 52 63 61 68 69 70 76 66 47 39 38 40 41 42 44 46 50 54
65 60 57 44 39 63 90 99 93 83 74 78 87 92 98 95 87 85 58 70 86 70 46 38 78 66 68 68 68 70 70 70 66 47 44 41 41 42 44 46 49 52 56
65 64 59 45 40 82 90 99 99 85 85 81 86 97 96 91 86 89 56 78 83 84 45 70 81 79 76 75 76 69 67 60 65 58 49 49 47 46 48 49 51 54 56
57 48 62 45 51 68 82 86 94 99 74 91 89 99 94 91 93 84 71 82 82 88 71 79 80 81 78 79 81 80 80 81 72 69 65 47 47 48 49 52 53 55 58
51 50 54 56 58 61 68 81 88 100 68 84 92 96 90 92 96 85 88 85 86 84 78 80 82 82 82 81 82 80 81 80 79 84 75 66 65 59 51 52 57 58 57
56 53 58 60 71 75 76 94 90 100 81 85 98 87 77 94 98 86 84 86 84 83 79 80 82 84 81 80 81 82 73 70 60 60 62 68 82 78 71 62 60 61 65
61 56 59 73 83 70 66 95 98 99 85 82 83 83 81 95 87 90 84 83 85 83 80 79 76 85 84 79 80 70 65 61 61 63 65 72 78 78 68 69 67 71 72
66 57 61 96 100 62 69 78 94 93 83 89 87 83 81 91 97 92 86 82 88 85 82 78 74 83 82 83 76 82 82 84 80 63 68 69 67 69 76 78 74 76 90
64 59 65 100 99 59 70 87 100 78 81 84 85 88 96 93 93 92 80 85 92 90 79 72 68 71 69 76 71 76 79 78 72 72 74 73 78 82 82 78 79 83 83
60 60 74 99 80 69 81 92 97 99 89 80 82 79 87 79 92 92 95 91 94 90 80 76 68 61 59 54 63 78 83 80 73 79 84 85 90 87 85 84 90 87 91
61 64 93 100 97 66 95 84 94 98 94 84 86 84 89 92 90 88 93 94 92 89 84 74 68 66 61 57 68 80 82 79 75 80 80 80 83 83 83 76 81 92 98
70 79 100 100 99 70 77 65 87 92 100 92 88 88 87 96 91 94 96 88 85 92 79 70 64 57 58 70 83 83 79 81 83 86 88 88 95 76 73 70 73 91 92

GFSSE_850_rhum_129.txt.gz
RH
74 65 57 58 50 46 51 55 56 57 60 61 62 66 61 61 59 58 31 16 14 16 24 61 72 56 71 75 84 84 82 82 83 78 71 61 32 17 18 19 24 50 70
64 70 62 66 52 48 57 60 60 60 60 63 64 67 65 62 68 56 23 14 16 21 56 82 53 53 74 88 84 84 87 86 80 72 52 22 18 18 24 31 45 83 96
82 79 70 74 64 50 58 65 63 63 62 66 67 68 67 65 74 57 20 21 52 83 41 47 77 78 77 83 85 85 79 74 67 44 23 17 21 25 53 94 95 99 96
91 80 74 72 73 67 61 67 66 65 66 66 72 70 69 68 78 61 20 39 85 90 72 58 78 82 77 81 80 72 67 52 36 26 22 25 42 57 70 91 84 89 98
96 94 84 76 83 72 76 69 71 68 68 69 77 73 71 82 80 67 33 76 84 93 75 60 78 81 85 83 75 72 72 65 46 29 30 38 85 90 79 67 86 92 52
87 93 95 85 82 80 74 70 72 70 68 72 78 74 74 79 88 72 41 82 82 84 73 61 81 88 82 80 70 61 64 62 47 32 32 49 76 75 66 61 64 66 68
75 93 90 95 86 82 78 74 73 74 67 73 77 76 76 79 86 72 43 81 79 81 69 62 65 69 78 68 52 57 55 44 37 31 30 32 78 74 67 67 58 56 52
45 69 95 94 97 86 79 77 74 77 71 71 78 78 78 79 87 71 63 68 78 74 63 55 45 44 46 47 54 73 59 44 40 31 30 43 55 63 47 44 52 42 46
38 43 63 87 96 98 86 77 80 78 77 72 74 74 79 83 87 77 70 70 82 73 62 54 37 27 26 36 67 78 68 54 41 33 31 33 35 38 38 36 35 35 36
31 38 42 60 100 99 99 82 81 81 76 76 73 72 80 87 86 80 65 74 84 70 64 65 42 22 22 44 73 82 75 46 33 33 33 32 32 33 34 33 34 35 35
33 32 38 44 78 86 94 97 84 83 79 79 78 79 79 89 92 88 65 70 85 75 64 68 38 21 25 48 63 69 53 53 50 36 32 32 32 32 33 33 35 36 37
30 33 36 38 47 88 95 99 95 83 85 84 84 84 83 88 95 92 73 63 83 80 71 63 26 23 31 45 58 74 65 68 54 34 32 33 32 33 34 35 37 39 41
34 36 35 36 37 51 95 100 99 91 87 87 86 84 80 90 96 97 82 70 81 84 74 64 24 27 32 50 65 78 72 65 49 34 34 34 35 35 36 38 40 43 45
41 41 42 40 36 38 44 89 94 100 91 88 88 85 80 91 96 100 84 66 77 76 72 45 24 29 40 61 67 74 72 58 46 37 35 36 37 38 39 41 45 49 50
50 50 45 46 51 40 42 54 86 99 97 88 86 87 85 90 96 99 84 63 65 69 71 32 25 30 47 61 72 75 66 55 45 38 37 38 40 41 42 44 47 51 54
44 45 45 64 60 54 44 42 75 98 100 82 79 80 88 93 93 98 83 59 53 65 67 28 28 34 46 61 70 71 63 57 52 44 40 40 41 42 44 46 48 51 54
42 40 44 55 60 52 43 40 61 83 99 94 80 81 88 94 97 95 81 58 60 69 57 29 42 51 64 68 69 68 66 62 52 52 47 44 44 44 45 46 47 49 52
35 38 50 55 52 55 47 40 65 83 93 100 81 88 89 94 98 89 81 57 69 68 48 40 56 67 72 70 69 64 67 63 57 50 48 48 48 46 46 48 50 51 54
28 44 50 50 53 51 52 44 51 63 94 87 92 87 92 95 94 87 79 57 75 64 42 54 75 72 77 78 77 77 80 78 75 68 62 59 56 54 56 54 53 57 59
28 45 49 53 53 54 66 69 54 61 75 86 100 74 92 92 93 87 82 56 80 69 52 73 73 78 76 80 83 82 84 79 78 79 73 64 63 61 62 62 62 60 60
32 37 38 56 51 60 97 98 66 77 80 87 99 76 90 89 99 86 77 62 79 84 66 75 81 82 82 83 84 82 79 76 64 61 65 67 69 68 65 71 72 71 75
37 33 46 56 55 66 99 99 84 54 75 82 99 82 98 98 94 81 77 76 87 87 79 81 81 85 81 83 82 75 70 76 82 79 72 71 70 69 73 76 77 74 78
53 52 58 53 57 91 100 100 82 79 76 97 95 88 99 96 95 85 80 78 86 85 78 76 80 81 79 83 74 65 84 81 77 74 74 75 75 79 81 84 87 86 89
57 60 57 60 63 97 100 96 59 68 91 100 96 89 93 96 87 80 86 82 83 83 78 76 78 78 76 73 73 64 60 63 76 81 82 82 79 80 84 84 90 92 95
48 58 59 62 73 98 100 82 54 69 99 98 92 83 96 97 84 86 85 87 81 78 83 78 75 79 74 65 59 64 73 74 68 66 82 82 81 82 83 77 69 69 89
59 64 60 70 87 100 100 81 56 65 92 100 100 86 100 100 98 88 88 88 81 80 90 81 72 67 64 57 56 54 62 66 64 70 71 76 80 89 81 76 71 73 89

GFSSE_850_rhum_135.txt.gz
RH
90 95 79 66 62 59 67 65 66 66 68 71 72 75 76 74 73 66 48 43 31 41 52 73 81 56 84 86 86 88 85 60 57 55 24 19 19 21 30 65 72 87 97
81 98 85 63 60 58 63 62 60 60 62 64 69 73 74 72 68 49 32 29 24 39 56 75 72 65 82 85 88 83 77 72 63 28 18 21 25 56 85 88 100 96 96
75 90 85 82 57 57 61 61 57 59 60 61 67 65 63 66 58 35 16 16 28 57 52 73 80 85 87 81 81 86 76 67 37 20 21 32 65 84 91 94 96 98 99
83 86 88 89 62 55 57 61 59 61 62 63 64 60 64 63 52 18 14 30 85 66 79 82 88 91 75 76 80 78 68 43 25 25 32 37 88 98 100 98 98 97 97
93 98 97 90 71 81 64 61 63 64 65 65 66 66 65 67 42 15 24 30 43 63 63 83 90 82 76 75 73 64 42 25 27 33 52 62 77 98 76 83 92 78 91
99 100 96 94 89 79 79 73 67 65 69 69 70 69 68 72 37 25 80 78 42 82 77 79 82 80 72 69 63 48 30 28 28 35 34 51 78 97 72 94 95 79 97
82 92 92 91 93 94 91 86 82 77 69 70 72 72 71 78 40 41 82 90 62 66 81 82 75 76 70 62 47 37 35 30 30 36 45 55 92 90 76 87 90 75 90
36 52 91 96 92 94 93 93 90 83 76 74 74 77 78 84 48 61 77 82 77 57 70 81 78 72 69 54 35 33 32 33 35 36 41 92 98 84 75 72 66 66 62
32 31 37 73 96 91 91 92 94 91 81 78 80 79 81 88 71 53 72 79 82 61 55 71 78 75 65 42 32 35 35 32 33 37 48 61 81 64 59 38 41 49 48
31 30 28 31 41 86 92 95 93 92 90 82 82 82 81 85 88 66 64 77 82 72 58 66 72 72 49 34 39 44 38 34 34 37 43 44 70 42 36 35 36 37 38
31 31 28 27 27 30 50 87 96 94 93 92 85 85 86 83 90 75 57 79 81 76 62 59 55 48 35 37 48 48 44 37 38 38 38 38 41 37 34 35 36 38 40
40 33 29 26 25 25 24 32 69 92 91 91 91 86 89 84 86 82 72 77 85 76 62 43 34 30 28 36 50 50 40 36 38 38 36 34 34 33 34 37 39 41 42
41 43 45 33 26 24 24 22 27 60 84 90 91 90 89 92 92 88 83 82 91 78 63 51 29 26 26 36 47 47 54 48 38 36 34 33 33 34 36 40 43 45 46
37 40 42 42 40 30 25 23 22 25 52 85 90 92 89 94 94 98 88 78 79 78 67 65 26 29 33 45 50 50 57 47 36 35 35 34 34 35 38 43 47 49 50
29 34 39 42 42 40 30 23 19 18 30 62 89 92 93 92 94 98 97 83 69 79 67 67 26 31 39 50 52 58 56 49 38 36 36 35 36 37 39 43 47 51 53
22 24 34 38 41 42 33 29 25 26 28 36 76 90 98 97 92 93 98 90 69 79 70 66 26 30 44 49 55 61 56 50 40 38 37 37 38 39 42 44 47 49 53
19 18 22 33 37 42 40 38 34 29 37 40 40 54 88 99 99 87 93 90 74 76 76 69 26 39 54 55 60 61 58 55 48 39 38 39 40 42 44 45 47 50 51
27 20 21 29 31 38 41 41 35 35 38 44 43 77 93 99 98 88 87 91 82 72 80 72 28 38 59 62 56 61 57 56 53 48 41 39 42 43 45 46 47 50 50
29 31 29 28 30 35 38 37 36 40 44 43 53 86 72 79 99 94 88 88 84 75 81 72 29 36 56 67 62 61 60 57 55 53 51 48 52 49 51 50 53 54 56
29 28 29 31 30 30 33 34 41 47 50 47 50 64 97 98 100 95 87 80 78 80 84 74 29 38 55 63 65 66 68 65 63 63 64 65 60 58 60 60 64 72 74
27 26 26 26 31 31 30 31 50 50 48 46 53 71 100 97 100 94 87 82 80 88 75 75 32 35 57 66 68 74 77 77 78 75 75 69 66 65 64 66 75 79 79
26 26 26 25 29 33 31 30 47 45 47 45 45 78 100 88 87 98 92 81 86 94 78 79 37 35 51 67 71 76 86 86 84 79 75 69 66 68 66 70 77 80 81
24 24 23 24 28 35 34 31 53 52 54 64 69 91 92 100 97 94 99 84 85 92 79 70 49 39 57 68 69 78 90 88 78 80 68 65 68 68 68 72 79 82 85
22 20 20 21 23 38 40 36 46 42 49 62 88 96 88 87 87 73 92 93 86 90 80 65 60 40 56 68 78 81 72 58 67 66 61 69 71 73 77 80 81 84 85
28 21 17 22 24 32 43 40 45 48 57 60 82 97 94 80 78 73 91 92 90 88 85 68 63 46 62 64 73 81 73 60 55 55 60 67 75 78 81 82 82 87 82
42 25 18 22 37 46 47 45 48 63 61 71 99 97 86 91 84 74 75 91 92 89 88 68 63 49 59 69 66 66 64 62 55 55 50 61 71 75 78 80 86 89 77

GFSSE_850_rhum_138.txt.gz
RH
92 99 93 98 86 84 80 83 81 76 74 72 73 75 77 76 78 71 53 38 35 32 51 53 79 80 82 86 90 88 85 55 58 30 19 20 22 28 46 61 96 86 96
90 96 96 97 88 82 86 80 78 77 74 75 72 73 75 74 72 61 45 36 30 39 83 84 55 82 84 86 88 80 62 68 38 23 24 33 66 78 96 98 92 99 84
82 97 98 95 84 74 80 76 74 74 74 74 71 74 74 72 68 47 32 31 29 35 71 77 81 83 84 79 80 73 69 55 24 25 35 48 90 82 94 89 100 97 98
86 99 98 93 79 64 80 77 70 70 71 68 69 71 70 67 59 32 17 22 36 37 61 76 82 77 72 75 77 72 62 33 23 31 38 75 89 98 98 97 98 99 98
97 98 97 93 86 74 58 64 65 68 67 66 69 63 66 65 51 16 19 82 70 50 72 87 88 80 74 76 72 64 45 22 27 35 55 89 96 99 99 97 100 99 97
96 99 100 93 85 82 72 62 60 64 67 68 66 66 68 68 36 16 26 46 43 76 85 88 81 77 75 72 64 50 25 25 29 35 47 97 80 77 99 94 100 98 98
91 98 99 98 93 86 87 86 79 68 70 70 69 70 69 72 33 33 60 41 72 65 85 81 68 70 70 67 52 32 25 27 30 36 48 75 97 99 98 94 99 99 98
38 66 97 97 96 94 89 88 91 89 78 74 76 73 72 76 41 58 79 64 60 79 75 74 63 66 66 61 37 32 28 29 32 40 44 94 99 100 96 82 85 75 72
34 33 42 81 91 93 93 90 92 90 89 80 72 76 78 82 49 49 67 82 66 64 76 76 71 64 64 50 32 32 32 31 33 40 48 96 98 89 60 46 64 52 51
32 32 30 34 44 91 91 92 92 94 92 91 87 80 82 87 67 49 62 78 76 62 65 66 74 68 64 38 31 33 32 33 36 44 44 67 67 65 36 38 38 38 40
28 28 29 28 28 30 50 78 90 89 91 90 90 88 86 84 86 65 61 74 81 68 56 65 62 73 61 33 34 38 34 34 38 44 42 52 60 33 34 37 38 39 40
33 30 28 26 26 26 26 26 37 77 88 90 89 87 91 88 87 84 68 78 81 76 60 65 62 63 52 32 40 42 40 36 38 40 38 35 37 33 35 39 41 42 43
36 36 33 28 25 25 26 24 23 24 64 88 89 90 90 90 90 92 80 82 96 87 67 61 53 39 36 36 45 42 35 35 37 37 36 35 34 33 38 42 45 46 47
32 32 35 36 32 26 26 27 23 21 20 52 84 90 89 88 91 94 87 78 91 92 73 53 40 27 28 38 52 42 46 43 36 36 36 35 34 35 39 44 48 50 51
32 31 30 30 37 37 32 28 26 22 18 18 51 90 92 89 95 93 91 84 79 80 76 58 46 26 24 36 54 52 50 43 36 35 35 35 35 36 40 45 48 51 53
28 28 29 25 25 34 37 36 30 25 20 16 25 70 94 93 92 96 92 87 83 72 79 67 59 32 23 34 48 55 57 50 41 36 35 36 36 38 41 44 48 50 54
24 22 22 23 22 25 33 38 38 32 26 22 24 47 98 98 97 99 94 88 87 76 80 72 65 33 27 41 46 59 60 54 42 36 37 38 40 40 43 46 48 50 53
26 24 22 22 21 22 28 33 36 36 32 25 31 40 58 88 97 100 98 92 88 83 79 75 66 32 31 45 45 56 59 58 53 41 39 40 42 43 44 47 50 51 54
28 26 27 28 28 28 33 38 38 36 34 28 28 36 45 73 97 93 95 90 90 86 80 82 68 34 28 51 56 59 63 60 57 53 43 41 43 47 48 50 55 58 59
30 29 28 30 31 31 33 34 35 39 36 32 30 32 40 57 87 99 99 99 84 90 79 87 77 40 30 44 66 65 68 65 64 58 55 54 52 55 56 60 63 70 74
22 29 28 28 27 26 32 32 32 34 35 32 31 31 35 50 96 90 100 99 86 90 86 79 81 46 34 62 71 74 73 69 70 64 66 65 64 63 65 70 68 75 78
28 22 28 28 28 26 26 29 31 30 31 36 39 41 39 48 72 99 96 98 92 89 89 83 81 58 35 64 73 73 80 78 73 66 71 69 67 69 68 70 69 73 76
34 25 22 27 27 27 26 28 34 34 35 41 48 46 43 45 75 88 100 100 94 92 84 88 79 68 35 60 69 67 84 81 65 66 67 67 66 67 68 68 66 70 78
32 32 26 22 25 26 26 27 34 32 31 38 39 42 44 41 83 86 99 100 97 89 80 88 87 76 35 50 69 71 68 56 64 66 60 60 64 62 66 68 70 75 78
35 35 31 23 24 24 23 24 37 40 34 35 38 41 49 43 75 99 100 99 97 88 78 82 95 83 51 34 42 62 72 69 58 50 46 48 56 59 65 70 75 74 78
43 35 35 30 22 21 21 20 32 41 39 37 48 48 57 54 50 67 97 96 100 98 86 84 91 89 73 35 36 47 59 70 59 51 49 43 46 56 66 75 75 74 74

GFSSE_850_rhum_141.txt.gz
RH
100 96 93 93 85 78 76 82 80 74 71 71 74 77 76 77 74 62 48 44 43 34 33 77 72 77 86 87 88 85 74 55 32 22 22 36 61 54 96 83 90 96 97
99 96 92 96 84 81 74 82 82 77 75 75 75 76 78 76 74 61 44 33 34 61 56 76 78 85 83 88 82 75 61 47 19 23 25 49 93 99 86 98 85 87 89
98 98 97 97 87 83 74 79 82 78 76 77 75 75 75 72 70 53 38 29 36 77 83 55 82 83 84 83 77 64 62 30 20 25 40 74 94 91 92 93 90 91 80
97 96 93 96 89 79 81 82 77 78 75 77 75 74 73 68 62 44 28 25 34 65 74 74 72 85 73 77 76 68 50 22 25 30 62 97 94 83 96 98 98 97 93
98 96 95 94 87 80 80 76 69 71 73 70 67 69 68 65 59 28 18 23 32 53 64 81 76 67 70 77 75 62 35 23 30 36 78 98 96 95 96 97 89 86 99
96 96 92 93 89 81 82 77 69 66 65 67 67 67 64 65 54 20 33 71 35 63 72 83 81 71 72 72 67 48 26 27 37 50 82 82 96 99 96 93 77 99 99
92 92 96 99 91 92 83 72 70 68 66 67 67 67 71 68 46 20 39 48 41 69 80 80 78 72 71 66 58 32 29 30 38 50 58 97 96 98 99 99 89 95 98
64 96 98 97 99 92 86 85 82 80 75 73 78 68 72 71 41 26 38 38 52 66 75 74 66 70 69 60 39 27 27 32 37 48 62 91 96 98 88 94 80 84 76
34 43 84 97 96 94 94 89 88 89 88 83 82 78 74 74 48 38 70 52 66 62 72 64 59 63 68 55 31 29 26 32 37 44 75 97 97 99 79 74 56 55 54
34 32 34 41 67 94 93 93 94 92 90 88 84 83 80 79 59 69 77 71 67 72 68 68 66 60 63 49 29 30 28 30 38 43 52 72 99 70 82 61 40 40 42
30 30 31 30 30 39 84 89 94 94 93 91 86 84 86 87 82 50 60 82 77 70 71 65 69 66 64 43 35 32 30 32 39 40 38 36 47 39 44 40 40 40 42
30 32 29 28 28 27 27 29 40 71 91 95 91 87 91 92 89 74 68 78 88 77 70 68 68 70 66 37 34 42 32 36 40 39 37 32 36 37 40 41 42 42 43
32 30 31 30 28 27 26 26 25 24 35 90 97 92 88 90 93 92 81 79 87 86 76 71 78 72 62 36 32 36 40 39 41 40 36 34 32 36 39 43 45 47 48
32 32 30 30 30 30 28 24 24 24 23 23 82 96 94 87 94 96 94 81 82 88 79 64 70 75 61 36 38 37 33 38 40 39 36 35 34 36 41 44 48 50 52
32 30 31 30 29 28 29 28 26 22 22 21 20 64 94 94 88 94 97 93 74 77 84 75 61 58 54 37 43 46 38 41 41 39 36 36 35 35 40 45 49 53 55
30 30 29 29 29 29 27 26 25 25 21 20 18 18 70 95 97 88 97 97 84 72 79 80 61 48 40 36 41 48 52 48 40 38 38 37 36 37 40 44 48 53 55
24 24 25 27 27 27 27 25 24 23 22 22 19 16 24 94 99 99 91 95 93 83 87 87 70 54 38 37 42 47 56 54 44 38 37 38 38 39 40 44 47 51 53
27 27 23 22 23 22 22 24 23 25 24 22 23 19 23 76 98 100 100 94 90 90 83 90 75 64 47 35 43 50 53 56 51 41 37 38 40 41 43 46 48 51 52
24 27 29 28 26 24 23 22 22 24 34 28 27 24 22 42 99 99 99 98 93 93 89 88 83 69 58 38 48 53 60 59 56 50 40 38 40 42 44 47 49 51 56
29 21 20 30 28 28 27 27 26 34 40 38 29 25 21 34 58 97 99 100 100 97 87 95 88 75 64 38 47 62 63 65 62 57 50 43 42 44 49 52 53 57 60
34 32 24 26 30 30 33 32 37 40 49 37 33 24 22 25 39 75 87 90 97 99 90 92 89 86 67 41 61 69 72 70 66 60 57 52 50 51 56 59 62 63 69
51 36 31 22 27 30 30 32 33 34 40 33 32 28 26 27 30 42 74 96 99 92 96 96 96 90 68 43 64 70 80 78 72 63 60 55 52 61 63 67 68 64 69
55 48 35 26 21 29 28 27 27 34 37 33 36 35 33 28 32 41 74 95 96 100 90 89 98 91 81 50 56 65 77 77 66 62 59 54 58 63 63 67 67 62 63
61 56 46 30 25 23 29 28 26 26 34 33 32 30 30 34 33 37 49 70 100 98 99 90 91 93 94 81 71 74 62 55 62 58 52 51 56 61 62 63 65 60 62
65 63 51 46 31 25 26 29 27 26 29 34 31 29 35 37 39 40 43 72 86 99 97 81 96 99 95 88 74 54 71 66 55 45 47 42 50 57 60 61 64 62 69
67 60 54 56 36 32 28 27 27 25 27 36 35 33 37 36 40 45 48 55 98 100 100 99 93 87 87 96 75 45 47 63 62 53 48 41 41 44 52 58 60 64 73

GFSSE_850_rhum_144.txt.gz
RH
98 98 94 91 89 81 70 80 73 71 72 72 72 74 72 71 66 57 49 44 38 32 62 74 61 86 89 89 87 79 70 40 19 20 39 52 88 82 94 92 97 93 87
96 96 94 90 88 81 73 79 76 71 71 72 74 75 73 73 70 55 40 38 31 35 81 81 84 85 90 86 79 65 54 22 22 24 32 81 87 92 87 79 89 77 83
96 95 94 92 89 84 76 79 80 75 73 72 73 72 74 72 70 52 34 30 45 70 69 82 84 84 88 76 70 64 37 24 27 32 85 99 90 88 77 89 84 78 81
96 93 91 91 90 84 77 78 80 75 74 76 76 73 74 71 66 49 28 27 66 76 69 69 85 84 77 73 68 60 28 28 35 67 91 95 96 90 94 96 80 88 76
97 94 92 92 90 84 79 80 79 76 74 74 80 88 89 74 66 43 25 25 49 71 69 69 81 79 71 74 68 53 24 29 40 90 95 100 100 90 93 78 72 73 98
100 98 96 92 85 79 82 85 81 76 75 74 70 69 76 71 63 30 22 26 40 58 68 72 68 68 74 75 65 45 23 30 75 92 92 98 93 94 88 81 98 89 82
100 97 98 100 94 85 83 83 79 73 77 68 66 65 66 66 60 23 42 52 36 66 73 80 77 68 71 69 55 31 25 34 89 87 89 94 98 91 98 84 82 89 94
100 96 97 100 97 95 87 77 75 74 73 81 71 69 66 68 60 28 80 70 40 75 79 83 74 70 66 63 46 27 27 34 85 89 94 98 80 81 98 94 94 92 92
69 99 99 99 100 97 90 89 88 80 77 79 80 77 71 72 53 53 82 62 55 77 82 84 71 70 66 56 35 30 29 37 86 86 90 98 85 82 55 60 75 81 84
34 39 60 92 100 100 100 96 92 92 91 85 81 85 81 75 69 43 59 57 68 75 83 81 72 72 66 55 32 29 33 40 87 93 92 94 87 52 52 44 43 46 45
33 33 32 34 44 88 95 95 95 94 95 92 88 84 89 84 76 57 75 74 71 73 77 79 75 72 69 54 35 33 30 79 87 90 88 73 69 50 42 39 41 42 43
32 31 30 30 30 31 58 71 82 93 93 95 94 91 88 89 93 94 78 79 74 76 72 82 81 76 74 64 38 42 50 78 89 92 90 43 49 50 42 41 42 42 43
29 29 31 30 29 28 28 28 27 28 51 89 93 93 91 90 91 93 83 83 86 84 79 78 81 79 78 92 86 67 78 82 87 91 88 40 56 51 42 43 44 45 46
29 28 27 28 28 28 28 27 27 26 25 25 78 92 92 90 90 93 91 84 82 87 92 78 86 91 91 84 82 82 79 80 85 86 75 42 64 53 42 44 47 49 51
25 28 27 28 28 27 27 27 26 24 24 24 22 44 92 91 90 92 94 89 86 87 98 95 97 96 92 87 76 83 73 68 56 68 89 40 40 50 43 45 48 51 53
20 20 24 28 28 28 28 27 26 25 24 22 22 21 25 84 91 90 92 87 91 90 94 99 99 99 93 85 77 72 66 57 47 53 67 44 38 39 41 44 48 50 52
27 22 20 21 26 29 28 28 28 26 24 24 21 20 19 20 74 93 92 88 90 89 88 98 100 100 92 83 76 79 79 79 56 45 46 63 38 38 39 42 45 48 50
19 20 20 20 22 22 26 28 27 26 26 24 23 21 19 18 23 86 94 91 89 90 92 88 99 100 95 86 75 80 86 77 72 68 44 41 44 43 39 42 45 47 49
38 30 27 22 23 24 22 23 24 25 25 25 23 23 20 18 16 71 89 95 97 91 93 93 83 84 82 84 78 80 85 89 67 59 50 41 38 40 53 44 46 47 48
40 32 30 30 26 25 29 27 26 24 22 29 32 22 21 19 22 38 93 96 98 97 97 95 90 89 83 67 69 76 87 85 87 63 54 46 41 40 42 44 45 46 47
44 30 27 29 25 26 20 30 30 33 35 27 36 27 21 23 25 64 77 79 89 98 95 96 93 96 89 80 65 72 85 93 81 67 59 61 45 41 42 43 49 50 50
52 50 37 34 29 30 25 27 30 29 27 25 24 37 40 34 28 25 61 84 98 99 95 98 99 99 99 90 69 79 79 85 81 65 72 60 62 52 46 46 52 53 57
65 63 62 49 48 37 27 33 34 33 51 43 53 59 46 32 27 24 37 88 92 98 99 98 99 99 100 98 79 66 72 67 73 69 68 63 57 54 50 52 56 58 61
69 72 75 64 54 49 37 38 37 50 65 49 54 53 44 34 38 36 33 59 89 95 99 98 96 99 98 98 88 70 62 67 68 63 86 66 57 58 60 60 58 59 59
75 76 81 68 58 55 52 37 48 63 36 59 56 48 36 34 34 33 32 36 51 78 91 98 99 83 98 99 94 81 65 65 55 57 58 77 77 61 65 64 61 63 59
78 81 80 79 67 55 58 43 36 52 57 61 65 55 35 32 39 34 37 38 39 59 90 96 96 89 98 100 100 93 71 59 70 62 62 68 65 64 45 52 59 59 57